• In Hungary
  • List of Countries
  • For 7 days
  • Water Temperature
  • Satellite Maps
  • Weather Map
  • News
  • Weather Widgets
  • user-avatar
    Login

    Hourly Weather Karnice

    Today, 24 June, Sunday

    Time Temperature Precipitation Wind Pressure Humidity
    00:00 +10°C° 0 mm 3 mps 746 mmHg 89%
    01:00 +9°C° 0 mm 3 mps 746 mmHg 90%
    02:00 +9°C° 0 mm 3 mps 746 mmHg 90%
    03:00 +9°C° 0 mm 3 mps 746 mmHg 91%
    04:00 +9°C° 0 mm 3 mps 746 mmHg 91%
    05:00 +10°C° 0 mm 3 mps 746 mmHg 86%
    06:00 +12°C° 0 mm 4 mps 746 mmHg 81%
    07:00 +13°C° 0 mm 4 mps 746 mmHg 75%
    08:00 +13°C° 0.6 mm 5 mps 746 mmHg 76%
    09:00 +13°C° 0.6 mm 5 mps 746 mmHg 77%
    10:00 +14°C° 0.6 mm 6 mps 745 mmHg 77%
    11:00 +14°C° 0.8 mm 6 mps 745 mmHg 77%
    12:00 +14°C° 0.8 mm 6 mps 745 mmHg 77%
    13:00 +15°C° 0.8 mm 5 mps 745 mmHg 77%
    14:00 +15°C° 0.5 mm 5 mps 745 mmHg 74%
    15:00 +16°C° 0.5 mm 5 mps 745 mmHg 72%
    16:00 +16°C° 0.5 mm 5 mps 745 mmHg 69%
    17:00 +17°C° 0.2 mm 4 mps 745 mmHg 72%
    18:00 +15°C° 0.2 mm 4 mps 745 mmHg 75%
    19:00 +14°C° 0.2 mm 3 mps 745 mmHg 78%
    20:00 +13°C° 0 mm 3 mps 746 mmHg 82%
    21:00 +13°C° 0 mm 2 mps 746 mmHg 86%
    22:00 +12°C° 0 mm 2 mps 747 mmHg 89%
    23:00 +10°C° 0 mm 2 mps 747 mmHg 90%

    Tomorrow, 25 June, Monday

    Time Temperature Precipitation Wind Pressure Humidity
    00:00 +10°C° 0 mm 2 mps 747 mmHg 91%
    01:00 +9°C° 0 mm 2 mps 747 mmHg 92%
    02:00 +9°C° 0 mm 2 mps 747 mmHg 92%
    03:00 +9°C° 0 mm 2 mps 747 mmHg 91%
    04:00 +9°C° 0 mm 2 mps 747 mmHg 91%
    05:00 +12°C° 0 mm 2 mps 748 mmHg 85%
    06:00 +12°C° 0 mm 3 mps 748 mmHg 79%
    07:00 +14°C° 0 mm 3 mps 748 mmHg 73%
    08:00 +16°C° 0 mm 3 mps 748 mmHg 67%
    09:00 +18°C° 0 mm 4 mps 749 mmHg 61%
    10:00 +19°C° 0 mm 4 mps 749 mmHg 54%
    11:00 +19°C° 0.4 mm 4 mps 749 mmHg 57%
    12:00 +19°C° 0.4 mm 4 mps 748 mmHg 59%
    13:00 +19°C° 0.4 mm 4 mps 748 mmHg 61%
    14:00 +19°C° 0.5 mm 4 mps 748 mmHg 63%
    15:00 +19°C° 0.5 mm 4 mps 748 mmHg 65%
    16:00 +19°C° 0.5 mm 4 mps 748 mmHg 67%
    17:00 +18°C° 0.3 mm 4 mps 748 mmHg 73%
    18:00 +17°C° 0.3 mm 3 mps 749 mmHg 78%
    19:00 +16°C° 0.3 mm 2 mps 749 mmHg 83%
    20:00 +16°C° 0 mm 2 mps 749 mmHg 84%
    21:00 +15°C° 0 mm 2 mps 749 mmHg 86%
    22:00 +14°C° 0 mm 2 mps 749 mmHg 87%
    23:00 +14°C° 0 mm 2 mps 749 mmHg 88%

    Day after tomorrow, 26 June, Tuesday

    Time Temperature Precipitation Wind Pressure Humidity
    00:00 +13°C° 0 mm 2 mps 749 mmHg 89%
    01:00 +13°C° 0 mm 2 mps 749 mmHg 90%
    02:00 +12°C° 0 mm 2 mps 749 mmHg 90%
    03:00 +11°C° 0 mm 3 mps 749 mmHg 91%
    04:00 +11°C° 0 mm 3 mps 749 mmHg 91%
    05:00 +12°C° 0 mm 3 mps 749 mmHg 86%
    06:00 +14°C° 0 mm 3 mps 749 mmHg 81%
    07:00 +17°C° 0 mm 3 mps 749 mmHg 75%
    08:00 +18°C° 0.1 mm 4 mps 749 mmHg 71%
    09:00 +19°C° 0.1 mm 4 mps 750 mmHg 66%
    10:00 +20°C° 0.1 mm 5 mps 750 mmHg 61%
    11:00 +20°C° 0.4 mm 4 mps 749 mmHg 59%
    12:00 +21°C° 0.4 mm 4 mps 749 mmHg 58%
    13:00 +21°C° 0.4 mm 4 mps 749 mmHg 56%
    14:00 +21°C° 0.3 mm 4 mps 749 mmHg 56%
    15:00 +21°C° 0.3 mm 4 mps 749 mmHg 56%
    16:00 +21°C° 0.3 mm 4 mps 749 mmHg 56%
    17:00 +20°C° 0.2 mm 4 mps 749 mmHg 63%
    18:00 +19°C° 0.2 mm 3 mps 749 mmHg 69%
    19:00 +18°C° 0.2 mm 3 mps 749 mmHg 76%
    20:00 +16°C° 0 mm 3 mps 749 mmHg 81%
    21:00 +14°C° 0 mm 3 mps 749 mmHg 85%
    22:00 +14°C° 0 mm 2 mps 750 mmHg 89%
    23:00 +13°C° 0 mm 2 mps 750 mmHg 91%

    27 June, Wednesday

    Time Temperature Precipitation Wind Pressure Humidity
    00:00 +12°C° 0 mm 2 mps 750 mmHg 93%
    01:00 +12°C° 0 mm 2 mps 750 mmHg 95%
    02:00 +12°C° 0 mm 2 mps 750 mmHg 96%
    03:00 +10°C° 0 mm 2 mps 750 mmHg 96%
    04:00 +10°C° 0 mm 2 mps 750 mmHg 97%
    05:00 +13°C° 0 mm 2 mps 750 mmHg 93%
    06:00 +14°C° 0 mm 2 mps 750 mmHg 88%
    07:00 +14°C° 0 mm 3 mps 750 mmHg 84%
    08:00 +16°C° 0.2 mm 3 mps 750 mmHg 81%
    09:00 +17°C° 0.2 mm 3 mps 750 mmHg 77%
    10:00 +18°C° 0.2 mm 3 mps 749 mmHg 74%
    11:00 +19°C° 0.3 mm 3 mps 749 mmHg 71%
    12:00 +19°C° 0.3 mm 3 mps 749 mmHg 68%
    13:00 +20°C° 0.3 mm 3 mps 749 mmHg 65%
    14:00 +20°C° 0.4 mm 3 mps 749 mmHg 64%
    15:00 +21°C° 0.4 mm 3 mps 748 mmHg 62%
    16:00 +21°C° 0.4 mm 3 mps 748 mmHg 61%
    17:00 +20°C° 0.5 mm 3 mps 748 mmHg 67%
    18:00 +19°C° 0.5 mm 3 mps 748 mmHg 74%
    19:00 +18°C° 0.5 mm 2 mps 748 mmHg 80%
    20:00 +17°C° 0.1 mm 3 mps 748 mmHg 84%
    21:00 +16°C° 0.1 mm 3 mps 749 mmHg 87%
    22:00 +14°C° 0.1 mm 3 mps 749 mmHg 91%
    23:00 +14°C° 0.2 mm 3 mps 749 mmHg 93%

    28 June, Thursday

    Time Temperature Precipitation Wind Pressure Humidity
    00:00 +14°C° 0.2 mm 3 mps 748 mmHg 94%
    01:00 +14°C° 0.2 mm 3 mps 748 mmHg 95%
    02:00 +14°C° 0.2 mm 3 mps 748 mmHg 95%
    03:00 +14°C° 0.2 mm 4 mps 748 mmHg 95%
    04:00 +14°C° 0.2 mm 4 mps 748 mmHg 95%
    05:00 +15°C° 0.3 mm 4 mps 748 mmHg 94%
    06:00 +15°C° 0.3 mm 4 mps 747 mmHg 93%
    07:00 +17°C° 0.3 mm 4 mps 747 mmHg 92%
    08:00 +17°C° 0.4 mm 4 mps 747 mmHg 91%
    09:00 +18°C° 0.4 mm 4 mps 746 mmHg 89%
    10:00 +19°C° 0.4 mm 4 mps 746 mmHg 87%
    11:00 +19°C° 0.6 mm 4 mps 745 mmHg 86%
    12:00 +20°C° 0.6 mm 4 mps 745 mmHg 85%
    13:00 +20°C° 0.6 mm 4 mps 744 mmHg 84%
    14:00 +20°C° 0.1 mm 3 mps 744 mmHg 82%
    15:00 +21°C° 0.1 mm 3 mps 743 mmHg 79%
    16:00 +21°C° 0.1 mm 2 mps 743 mmHg 77%
    17:00 +21°C° 0 mm 2 mps 743 mmHg 79%
    18:00 +22°C° 0 mm 1 mps 742 mmHg 82%
    19:00 +21°C° 0 mm 1 mps 742 mmHg 84%
    20:00 +20°C° 0 mm 1 mps 742 mmHg 87%
    21:00 +19°C° 0 mm 1 mps 742 mmHg 90%
    22:00 +18°C° 0 mm 1 mps 742 mmHg 93%
    23:00 +18°C° 0 mm 1 mps 742 mmHg 93%

    29 June, Friday

    Time Temperature Precipitation Wind Pressure Humidity
    00:00 +18°C° 0 mm 1 mps 742 mmHg 94%
    01:00 +16°C° 0 mm 2 mps 742 mmHg 95%
    02:00 +16°C° 0 mm 2 mps 742 mmHg 95%
    03:00 +16°C° 0 mm 2 mps 742 mmHg 96%
    04:00 +16°C° 0 mm 2 mps 741 mmHg 96%
    05:00 +18°C° 0 mm 3 mps 742 mmHg 91%
    06:00 +19°C° 0 mm 3 mps 742 mmHg 87%
    07:00 +20°C° 0 mm 3 mps 742 mmHg 82%
    08:00 +21°C° 0 mm 3 mps 742 mmHg 77%
    09:00 +22°C° 0 mm 3 mps 742 mmHg 72%
    10:00 +24°C° 0 mm 3 mps 742 mmHg 66%
    11:00 +25°C° 0 mm 3 mps 742 mmHg 63%
    12:00 +25°C° 0 mm 3 mps 742 mmHg 59%
    13:00 +26°C° 0 mm 3 mps 742 mmHg 56%
    14:00 +26°C° 0 mm 3 mps 742 mmHg 55%
    15:00 +27°C° 0 mm 3 mps 742 mmHg 54%
    16:00 +27°C° 0 mm 3 mps 741 mmHg 53%
    17:00 +26°C° 0 mm 2 mps 742 mmHg 58%
    18:00 +25°C° 0 mm 2 mps 742 mmHg 62%
    19:00 +24°C° 0 mm 1 mps 742 mmHg 67%
    20:00 +23°C° 0 mm 1 mps 742 mmHg 69%
    21:00 +21°C° 0 mm 1 mps 742 mmHg 72%
    22:00 +20°C° 0 mm 1 mps 743 mmHg 74%
    23:00 +19°C° 0 mm 2 mps 742 mmHg 76%
    Show more